Home   Weather   Osorno   Past weeks

Flag for Chile Past Weather in Osorno, Chile — Yesterday and Last 2 Weeks

Now
54 °F

Partly sunny.


Feels Like: 52 °F
Forecast: 43 / 76 °F
Wind: 6 mph from Southwest

Location: Puerto Montt Airport

Current Time: Jan 22, 2018 at 9:43:19 am

Latest Report: Jan 22, 2018 at 9:00 am


Visibility: N/A

Pressure: 29.92 "Hg

Humidity: 94%

Dew Point: 52 °F

Location of OsornoLocation

Past Weather in Osorno — Graph

°F

Osorno Temperature Yesterday

Maximum temperature yesterday: 68 °F (at 6:00 pm)
Minimum temperature yesterday: 48 °F (at 5:00 am)
Average temperature yesterday: 58 °F

High & Low Weather Summary for the Past Weeks

 TemperatureHumidityPressure
High77 °F (Jan 7, 3:00 pm)100% (Jan 7, 8:00 am)30.24 "Hg (Jan 7, 8:00 am)
Low43 °F (Jan 15, 6:00 am)42% (Jan 13, 3:00 pm)29.77 "Hg (Jan 10, 11:00 pm)
Average59 °F79%30.05 "Hg
* Reported Jan 7 8:00 am — Jan 22 8:00 am, Osorno. Weather by CustomWeather, © 2018

Note: Actual official high and low records may vary slightly from our data, if they occured in-between our weather recording intervals... More about our weather records

Advertising

Osorno Weather History for the Previous 24 Hours

Scroll right to see more
 ConditionsComfort  
Time TempWeatherWind HumidityBarometerVisibility
8:00 am
Mon, Jan 22
50 °FPartly sunny.7 mph100%29.89 "HgN/A
7:00 am48 °FPartly sunny.2 mph100%29.89 "HgN/A
6:00 am50 °FPassing clouds.2 mph94%29.89 "HgN/A
5:00 am48 °FPassing clouds.1 mph100%29.89 "HgN/A
4:00 am46 °FClear.3 mph100%29.89 "Hg10 mi
3:00 am48 °FPassing clouds.5 mph100%29.89 "HgN/A
2:00 am48 °FClear.1 mph94%29.92 "Hg10 mi
1:00 am52 °FClear.5 mph94%29.92 "Hg10 mi
12:00 am52 °FPassing clouds.3 mph94%29.92 "HgN/A
11:00 pm
Sun, Jan 21
54 °FClear.5 mph88%29.95 "Hg10 mi
10:00 pm55 °FClear.6 mph82%29.92 "Hg10 mi
9:00 pm61 °FSunny.7 mph68%29.92 "Hg10 mi
8:00 pm66 °FPassing clouds.8 mph56%29.92 "HgN/A
7:00 pm66 °FPassing clouds.10 mph60%29.89 "HgN/A
6:00 pm68 °FPassing clouds.10 mph56%29.89 "HgN/A
5:00 pm66 °FPassing clouds.14 mph60%29.89 "HgN/A
4:00 pm64 °FPassing clouds.13 mph68%29.92 "HgN/A
3:00 pm66 °FPassing clouds.13 mph64%29.92 "HgN/A
2:00 pm64 °FPassing clouds.10 mph64%29.92 "HgN/A
1:00 pm64 °FPassing clouds.10 mph64%29.95 "HgN/A
12:00 pm63 °FPartly sunny.9 mph68%29.95 "HgN/A
11:00 am59 °FPartly sunny.8 mph72%29.95 "HgN/A
10:03 am57 °FPartly sunny.10 mph77%29.95 "HgN/A
9:25 am55 °FPartly sunny.8 mph88%29.95 "HgN/A
9:00 am54 °FCool.6 mph94%N/AN/A
Weather by CustomWeather, © 2018

See weather overview